Location: Banios
(43.0451°N, 0.2335°E)
Time: 13:22:27
(UTC+00:00)

Cosmos 2297 - Pass Details

Date: 25 January 2021
Orbit: 834 x 860 km, 71.0° (Epoch: 25 February)

Event Time Altitude Azimuth Distance (km) Brightness Sun altitude
Exits shadow 06:15:30 - 331° (NNW) 3,004 6.2 -12.0°
Reaches altitude 10° 06:16:50 10° 329° (NNW) 2,504 5.7 -11.8°
Maximum altitude 06:22:29 61° 250° (WSW) 972 3.8 -10.8°
Drops below altitude 10° 06:28:07 10° 171° (S) 2,486 6.5 -9.8°
Sets 06:30:35 0° 168° (SSE) 3,416 7.3 -9.4°
